Site menu:

About:

weather.olc.net provides weather information from NOAA, the National Weather Service, Weather Underground, and current weather data collected outside of Orangeburg, SC near Great Branch.


Today's Forecast

Overnight

Overnight: Mostly cloudy, with a low around 71. Southwest wind around 7 mph.
Mostly Cloudy


Low: 71 °F

Sunday

Sunday: A slight chance of showers and thunderstorms after 1pm.  Mostly cloudy, with a high near 90. Southwest wind around 6 mph.  Chance of precipitation is 20%.
Mostly Cloudy
then Slight
Chance
T-storms
High: 90 °F

Weather Almanac

Today In 2019
High: 88.3°F
Low: 69.0°F

Columbia Metro Airport

Jun 7th Weather Records
Astronomical Info

Sunrise:
06:13 am

Sunset:
08:32 pm
Civil Twilight    
Dawn:
05:44 am
Dusk:
09:01 pm
Moonset: 06:50 am
Moonrise: 09:43 pm
Full MoonJun 05
Last Qtr.Jun 13
New MoonJun 21
First Qtr.Jun 28
Current PhaseFull Moon 97%

Regional Weather Roundup
Issued by NWS Columbia, SC


000
ASUS42 KCAE 070510
RWRCAE
SOUTH CAROLINA REGIONAL WEATHER ROUNDUP
NATIONAL WEATHER SERVICE COLUMBIA SC
100 AM EDT SUN JUN 07 2020

Note: "fair" indicates few or no clouds below 12,000 feet with no
significant weather and/or obstructions to visibility.

SCZ003-006-007-009-010-070600-
UPSTATE

CITY           SKY/WX    TMP DP  RH WIND       PRES   REMARKS
ANDERSON       CLOUDY    74  71  91 SW6       30.01S
CLEMSON        CLOUDY    73  70  90 S3        30.01F
GREENVILLE     CLOUDY    76  71  85 SW6       30.01F
GREENWOOD      MOCLDY    73  71  93 SW8       30.02F
GREER          CLOUDY    72  68  87 SW8       30.00F
ROCK HILL      CLOUDY    72  70  93 SW7       29.98F
$$

SCZ027-028-031-032-036-070600-
CENTRAL

CITY           SKY/WX    TMP DP  RH WIND       PRES   REMARKS
COLUMBIA APT   MOCLDY    76  69  79 SW6       29.98S
COLUMBIA OWENS MOCLDY    78  71  79 SW5       29.99S
MCENTIRE ANGB  MOCLDY    75  72  91 CALM      29.99S
ORANGEBURG     CLOUDY    74  70  87 W3        30.00S
SUMTER SHAW    MOCLDY    76  71  85 SW7       29.98
$$

SCZ034-044-045-048-050-070600-
COAST

CITY           SKY/WX    TMP DP  RH WIND       PRES   REMARKS
CHARLESTON APT CLOUDY    76  67  73 W5        29.99S
BEAUFORT       CLOUDY    78  67  68 SW5       30.00
$$